This is the latest recevied weather packets stored in our database for station/object IW1RCO-13. If no packets are shown the sender has not sent any weather packets the latest 10 day(s).
| Time | Temp. | Humidity | Pressure | Rain* | Wind** | Luminosity | Snow |
|---|---|---|---|---|---|---|---|
| 1788341971 | 25.56° C | 75% | 1019.8 hPa | - | - | - | - |
| 1788341668 | 25° C | 76% | 1019.8 hPa | - | - | - | - |
| 1788341371 | 23.89° C | 77% | 1019.5 hPa | - | - | - | - |
| 1788341067 | 23.89° C | 77% | 1019.7 hPa | - | - | - | - |
| 1788340770 | 24.44° C | 77% | 1019.6 hPa | - | - | - | - |
| 1788340467 | 24.44° C | 77% | 1019.2 hPa | - | - | - | - |
| 1788340170 | 24.44° C | 76% | 1019.4 hPa | - | - | - | - |
| 1788339867 | 24.44° C | 75% | 1019.6 hPa | - | - | - | - |
| 1788339570 | 23.89° C | 77% | 1019.6 hPa | - | - | - | - |
| 1788339266 | 23.89° C | 77% | 1019.5 hPa | - | - | - | - |
| 1788338970 | 23.89° C | 78% | 1019.7 hPa | - | - | - | - |
| 1788338666 | 23.89° C | 79% | 1019.7 hPa | - | - | - | - |
| 1788338369 | 23.33° C | 78% | 1019.8 hPa | - | - | - | - |
| 1788338066 | 23.33° C | 79% | 1019.5 hPa | - | - | - | - |
| 1788337769 | 23.33° C | 80% | 1019.6 hPa | - | - | - | - |
| 1788337472 | 23.33° C | 79% | 1019.4 hPa | - | - | - | - |
| 1788337169 | 23.89° C | 77% | 1019.6 hPa | - | - | - | - |
| 1788336872 | 23.33° C | 76% | 1019.7 hPa | - | - | - | - |
| 1788336568 | 22.78° C | 77% | 1019.6 hPa | - | - | - | - |
| 1788336272 | 22.78° C | 77% | 1019.2 hPa | - | - | - | - |
| 1788335968 | 22.78° C | 79% | 1018.5 hPa | - | - | - | - |
| 1788335672 | 22.78° C | 78% | 1018.9 hPa | - | - | - | - |
| 1788335368 | 22.22° C | 78% | 1019.6 hPa | - | - | - | - |
| 1788335071 | 22.22° C | 79% | 1019 hPa | - | - | - | - |
| 1788334768 | 22.22° C | 79% | 1019.1 hPa | - | - | - | - |
* Rain since midnight (hover to see other rain measurements)
** Current wind speed in m/s (hover to see current wind gust speed)